This is the latest recevied weather packets stored in our database for station/object KE2HEH. If no packets are shown the sender has not sent any weather packets the latest 10 day(s).
| Time | Temp. | Humidity | Pressure | Rain* | Wind** | Luminosity | Snow |
|---|---|---|---|---|---|---|---|
| 1777819380 | 11.11° C | 43% | 1012.3 hPa | 0 mm | - | 785 W/m² | - |
| 1777819076 | 10.56° C | 46% | 1012.4 hPa | 0 mm | - | 760 W/m² | - |
| 1777818772 | 11.11° C | 46% | 1012.7 hPa | 0 mm | - | 711 W/m² | - |
| 1777818469 | 10.56° C | 49% | 1012.4 hPa | 0 mm | - | 743 W/m² | - |
| 1777818166 | 10.56° C | 48% | 1012.5 hPa | 0 mm | - | 207 W/m² | - |
| 1777817862 | 10.56° C | 49% | 1012.6 hPa | 0 mm | - | 679 W/m² | - |
| 1777817560 | 10° C | 50% | 1012.5 hPa | 0 mm | - | 663 W/m² | - |
| 1777817256 | 10° C | 50% | 1012.6 hPa | 0 mm | - | 362 W/m² | - |
| 1777816954 | 10.56° C | 50% | 1012.5 hPa | 0 mm | - | 498 W/m² | - |
| 1777816650 | 10° C | 50% | 1012.4 hPa | 0 mm | - | 647 W/m² | - |
| 1777816347 | 10° C | 51% | 1012.5 hPa | 0 mm | - | 619 W/m² | - |
| 1777816045 | 10° C | 51% | 1012.4 hPa | 0 mm | - | 604 W/m² | - |
| 1777815742 | 9.44° C | 52% | 1012.7 hPa | 0 mm | - | 581 W/m² | - |
| 1777815440 | 10° C | 51% | 1012.6 hPa | 0 mm | - | 592 W/m² | - |
| 1777815137 | 10° C | 52% | 1012.5 hPa | 0 mm | - | 583 W/m² | - |
| 1777814833 | 9.44° C | 51% | 1012.4 hPa | 0 mm | - | 560 W/m² | - |
| 1777814529 | 10° C | 51% | 1012.4 hPa | 0 mm | - | 547 W/m² | - |
| 1777814227 | 9.44° C | 52% | 1012.6 hPa | 0 mm | - | 537 W/m² | - |
| 1777813923 | 8.89° C | 53% | 1012.4 hPa | 0 mm | - | 519 W/m² | - |
| 1777813621 | 9.44° C | 53% | 1012.4 hPa | 0 mm | - | 512 W/m² | - |
| 1777813318 | 8.89° C | 53% | 1012.5 hPa | 0 mm | - | 479 W/m² | - |
| 1777813015 | 8.89° C | 54% | 1012.5 hPa | 0 mm | - | 399 W/m² | - |
| 1777812713 | 8.89° C | 54% | 1012.3 hPa | 0 mm | - | 295 W/m² | - |
| 1777812409 | 8.89° C | 54% | 1012.4 hPa | 0 mm | - | 329 W/m² | - |
| 1777812108 | 8.89° C | 54% | 1012.5 hPa | 0 mm | - | 503 W/m² | - |
* Rain latest hour (hover to see other rain measurements)
** Current wind speed in m/s (hover to see current wind gust speed)